Location: L’Isle-en-Dodon
(43.3843°N, 0.8351°E)
Time: 05:37:35
(UTC+00:00)

Daily predictions for brighter satellites

Satellite Brightness Start Highest point End
(mag) Time Altitude Azimuth Time Altitude Azimuth Time Altitude Azimuth
Cosmos 1697 Rocket 3.9 00:00:03 10° NNW 00:03:24 37° NNW 00:03:24 37° NNW
ATLAS 2AS CENTAUR R/B 3.0 00:09:45 59° NW 00:09:45 59° NW 00:16:20 10° NNE
Cosmos 1980 Rocket 3.1 00:20:18 10° NNW 00:24:20 45° N 00:24:20 45° N
Cosmos 2333 Rocket 4.1 00:49:06 10° N 00:53:43 25° NE 00:57:05 15° E
USA 281 4.3 00:51:27 24° ESE 00:54:38 38° NE 01:00:36 10° N
Cosmos 2082 Rocket 2.8 00:59:24 55° NNE 00:59:24 55° NNE 01:03:48 10° NNE
Cosmos 1833 Rocket 4.5 01:00:04 22° NW 01:00:18 22° NW 01:04:34 10° N
Cosmos 2322 Rocket 4.4 01:03:39 10° N 01:07:53 21° NE 01:12:07 10° E
ACS3 Solar Sail 1.8 01:13:01 10° N 01:18:33 75° N 01:18:33 75° N
CZ-4C R/B 3.0 01:22:06 39° N 01:22:06 39° N 01:25:49 10° NNE
SL-16 R/B 3.1 01:17:58 10° NNW 01:23:24 44° ENE 01:24:53 36° E
SL-4 R/B 4.5 01:31:34 17° ENE 01:31:34 17° ENE 01:32:40 10° ENE
NOSS 3-3 (C) 4.2 01:30:27 49° E 01:30:27 49° E 01:35:21 10° NE
Cosmos 2058 Rocket 4.4 01:32:04 37° N 01:32:04 37° N 01:34:45 10° N
ATLAS 3B R/B 3.5 01:23:51 10° NW 01:29:24 42° WNW 01:29:24 42° WNW
USA 267 3.7 01:27:49 10° ENE 01:34:01 45° SE 01:34:01 45° SE
Cosmos 2026 Rocket 4.4 01:29:47 10° NNW 01:35:02 51° WNW 01:35:02 51° WNW
Cosmos 909 Rocket 4.3 01:37:59 54° WNW 01:38:19 55° NW 01:44:32 10° NNE
Meteor 2-6 Rocket 4.2 01:49:06 78° ESE 01:49:11 78° E 01:55:04 10° NNE
Cosmos 1092 Rocket 4.4 01:43:40 10° NNW 01:48:43 47° WNW 01:48:43 47° WNW
IDEFIX/ARIANE 42P 2.6 01:52:36 10° N 01:57:22 71° NNW 01:57:22 71° NNW
Envisat 4.2 01:55:43 10° NNE 02:00:18 34° E 02:01:23 31° ESE
Iridium 4 Rocket 4.4 02:03:00 35° ESE 02:03:55 39° E 02:08:31 10° NNE
MOZ.5/SAFIR/RUBIN 5/SL-8 4.3 02:05:32 51° ESE 02:06:09 56° ENE 02:10:42 10° N
H-2A R/B 4.4 02:06:25 19° E 02:07:33 22° ENE 02:10:24 10° NNE
Cosmos 44 Rocket 4.3 02:08:21 37° NW 02:08:26 37° NW 02:13:13 10° NNE
Cosmos 1980 Rocket 4.5 02:05:41 10° WNW 02:06:03 11° WNW 02:06:03 11° WNW
USA 234 4.3 02:04:00 10° E 02:10:06 43° NNE 02:16:12 10° NW
Cosmos 1975 4.1 02:08:19 10° N 02:10:36 35° NNE 02:10:36 35° NNE
Cosmos 1763 Rocket 3.5 02:13:17 67° SE 02:13:41 70° ESE 02:18:57 10° NNE
ADEOS II 3.8 02:09:24 10° NE 02:13:49 27° E 02:16:28 18° SE
COSMOS 2406 3.6 02:14:30 48° WNW 02:14:54 49° WNW 02:20:29 10° NNE
ALOS 3.4 02:14:13 10° NNE 02:18:24 35° E 02:19:31 30° SE
MSX 4.0 02:13:43 10° N 02:19:19 54° WNW 02:19:47 52° W
CZ-2D R/B 3.0 02:17:30 10° NNE 02:22:32 44° E 02:24:32 31° SSE
ADEOS Rocket 3.5 02:18:10 10° NNE 02:25:49 81° WNW 02:28:49 42° SSW
Cosmos 1375 Rocket 4.5 02:31:37 52° SW 02:33:22 82° WNW 02:39:58 10° NNE
Cosmos 1354 Rocket 4.1 02:29:28 10° NNW 02:34:46 76° ENE 02:38:18 21° SSE
Cosmos 1503 Rocket 3.8 02:30:53 10° NNW 02:36:08 72° WSW 02:37:01 59° SSW
Cosmos 2360 Rocket 2.2 02:31:26 10° NNW 02:37:09 84° ENE 02:42:49 10° SSE
FENGYUN 3A 4.0 02:32:21 10° N 02:37:33 48° WNW 02:38:14 45° W
Cosmos 2333 Rocket 2.2 02:32:49 10° NNW 02:38:23 57° WSW 02:38:59 54° SW
USA 281 3.4 02:38:17 44° SW 02:38:59 46° WSW 02:45:17 10° NW
Cosmos 540 Rocket 3.4 02:41:19 59° SW 02:42:11 75° WNW 02:47:21 10° NNE
Cosmos 2082 Rocket 4.1 02:41:13 16° WNW 02:42:55 18° NW 02:46:40 10° N
Cosmos 2221 3.2 02:43:58 38° NW 02:43:58 38° NW 02:47:16 10° N
Cosmos 468 Rocket 4.1 02:46:38 40° S 02:48:29 71° ESE 02:53:46 10° NNE
NPP 4.4 02:45:43 10° N 02:50:35 36° WNW 02:51:27 34° W
Resurs 1-4 Rocket 2.0 02:45:56 10° NNE 02:51:16 88° ESE 02:53:19 39° SSW
Meteor 2-9 Rocket 4.3 02:46:28 10° NNW 02:51:33 47° W 02:52:07 45° WSW
BREEZE-M DEB (TANK) 4.3 02:50:12 22° NW 02:51:46 38° NNE 02:58:06 10° E
Cosmos 2278 3.9 02:46:28 10° NW 02:51:57 49° WSW 02:52:57 44° SW
Cosmos 2322 Rocket 2.1 02:46:50 10° NNW 02:52:27 69° WSW 02:56:37 18° S
Cosmos 1833 4.1 02:53:58 42° SSW 02:56:02 83° WNW 03:01:45 10° NNE
Cosmos 1766 Rocket 3.8 02:54:16 10° N 02:58:35 66° E 03:01:40 18° SSE
Cosmos 1271 Rocket 4.1 03:01:02 22° NW 03:01:02 22° NW 03:03:02 10° NNW
ACS3 Solar Sail 3.5 02:57:16 10° NNW 03:00:37 15° WNW 03:02:06 14° WNW
H-2A R/B 2.1 03:00:14 10° NNE 03:05:25 81° ESE 03:08:28 26° S
Cosmos 2219 Rocket 2.1 03:00:44 10° NNW 03:06:23 88° ENE 03:12:03 10° SSE
SL-4 R/B 1.6 03:05:08 29° WNW 03:07:00 86° SSW 03:10:47 10° SE
SL-16 R/B 3.1 03:02:27 10° NW 03:06:39 28° W 03:06:39 28° W
CZ-3 Stage 3 3.8 03:05:05 28° SSW 03:08:38 41° SSE 03:28:42 10° ESE
Meteor 1-11 Rocket 3.9 03:02:59 10° NNW 03:08:41 54° W 03:11:37 28° SSW
USA 290 3.1 03:10:18 36° NW 03:10:18 36° NW 03:12:55 10° N
CZ-4C R/B 4.2 03:07:38 10° NW 03:10:23 15° NNW 03:13:30 10° NNE
ARGOS 4.1 03:11:11 10° NNE 03:16:22 46° E 03:21:30 10° S
USA 267 3.5 03:10:44 10° NE 03:17:11 61° NNW 03:21:22 23° WSW
METEOR-M 4.3 03:13:42 10° NNE 03:19:02 74° ESE 03:23:22 16° S
Gbstr 26 Del rocket 2.4 03:19:26 15° WNW 03:22:30 80° SW 03:26:17 10° SE
ISS -3.8 03:29:12 41° SW 03:30:14 78° SE 03:33:37 10° ENE
Cosmos 372 Rocket 3.8 03:25:42 10° NNW 03:30:52 80° WSW 03:35:58 10° SSE
JB-3 4.0 03:30:38 20° S 03:32:56 59° W 03:36:30 10° NNW
BREEZE-M DEB (TANK) 2.6 03:31:25 22° WSW 03:36:04 86° SSE 03:39:13 10° ENE
Cosmos 1655 Rocket 4.2 03:31:42 10° NNW 03:37:38 48° W 03:43:31 10° SSW
Meteor 2-4 Rocket 3.7 03:34:20 21° SSW 03:37:52 56° WNW 03:43:08 10° N
Cosmos 1461 2.6 03:37:00 29° SW 03:38:43 66° NW 03:42:26 10° NNE
Envisat 4.0 03:34:44 10° N 03:39:08 31° WNW 03:41:31 21° WSW
H-2A R/B 3.2 03:41:22 24° W 03:41:24 24° W 03:44:23 10° NW
Cosmos 2084 Rocket 3.8 03:38:06 10° NW 03:42:02 39° WSW 03:46:00 10° S
Cosmos 1244 Rocket 4.4 03:36:06 10° N 03:42:21 75° W 03:48:29 10° S
Aureole 1 Rocket 3.6 03:38:10 10° NW 03:42:23 45° WSW 03:47:35 10° S
Cosmos 1066 Rocket 4.0 03:38:36 14° SSW 03:43:19 73° W 03:48:40 10° N
NOSS 3-4 (A) 3.9 03:37:18 10° NW 03:44:13 69° WSW 03:52:19 10° SSE
NOSS 3-4 (C) 3.9 03:37:51 10° NW 03:44:47 70° WSW 03:52:53 10° SSE
AQUA 3.8 03:41:52 10° NNE 03:46:35 85° ESE 03:51:16 10° SSW
Cosmos 1151 Rocket 3.8 03:42:58 10° S 03:47:02 51° E 03:51:09 10° NNE
Cosmos 1842 Rocket 3.7 03:46:03 18° SSW 03:49:03 52° WNW 03:53:17 10° N
Cosmos 1238 Rocket 3.9 03:50:21 16° WNW 03:50:21 16° WNW 03:52:18 10° NNW
Cosmos 1500 Rocket 4.5 03:47:49 10° N 03:52:07 51° ENE 03:56:25 10° SSE
Nadezhda 2 Rocket 4.4 03:46:22 10° NNW 03:52:28 72° W 03:58:31 10° S
USA 234 3.2 03:46:20 10° SE 03:52:51 74° SW 03:59:25 10° NW
BREEZE-M DEB (TANK) 3.6 03:44:32 10° WNW 03:52:52 46° SW 03:55:53 10° SSE
ADEOS II 2.6 03:48:35 10° N 03:53:27 40° WNW 03:57:17 15° SW
BREEZE-M DEB (TANK) 3.4 03:50:10 10° WNW 03:53:50 74° SSW 04:06:10 10° SE
ALOS 3.5 03:51:27 10° NNW 03:55:08 25° WNW 03:57:32 16° WSW
Cosmos 2297 Rocket 3.3 03:50:15 10° S 03:55:33 43° ESE 04:00:52 10° NE
CZ-2D R/B 3.3 03:57:58 10° N 04:02:15 26° WNW 04:05:48 13° WSW
Cosmos 841 Rocket 3.7 03:58:30 14° SW 04:02:49 53° WNW 04:07:54 10° NNE
SL-16 R/B 2.5 03:57:12 10° S 04:03:27 77° WSW 04:09:45 10° NNW
Sich 1 2.9 03:59:47 10° NNW 04:03:54 60° W 04:07:57 10° S
Okean 3 Rocket 3.6 04:00:32 10° NNW 04:04:56 64° W 04:09:21 10° S
Cosmos 1758 3.0 04:01:55 10° N 04:05:34 89° E 04:09:11 10° S
COSMOS 2428 2.8 03:59:58 10° NNW 04:05:44 87° ENE 04:11:25 10° SSE
CZ-3 R/B 3.8 03:42:49 10° WSW 04:08:14 41° SSW 04:16:21 10° SE
Cosmos 1898 Rocket 3.7 04:07:16 10° NNW 04:12:11 45° WSW 04:17:04 10° S
Cosmos 1743 Rocket 4.4 04:08:51 10° N 04:13:10 55° E 04:17:26 10° SSE
Cosmos 1805 Rocket 3.5 04:09:21 10° N 04:13:45 86° W 04:18:07 10° S
Cosmos 1937 Rocket 3.5 04:11:36 10° NNW 04:16:41 57° WSW 04:21:42 10° S
DELTA 2 R/B (1) 4.2 04:13:49 11° SW 04:18:50 45° SSE 04:24:05 10° E
Cosmos 2360 Rocket 3.8 04:17:32 10° WNW 04:20:17 14° W 04:23:03 10° SW
USA 276 0.5 04:19:15 10° WNW 04:20:52 61° SSW 04:22:42 10° SE
H-2A R/B 2.2 04:18:46 10° N 04:22:38 47° WNW 04:26:25 10° SW
Meteor 2-10 Rocket 4.2 04:22:11 10° NNW 04:26:48 34° W 04:31:32 10° SSW
In-Cosmos 22 4.3 04:23:51 10° SSW 04:28:57 50° WNW 04:34:11 10° N
Resurs 1-4 Rocket 4.0 04:27:34 10° NNW 04:30:16 14° WNW 04:32:58 10° W
Cosmos 1340 Rocket 3.0 04:29:34 10° N 04:33:19 72° E 04:37:04 10° SSE
CZ-2C R/B 2.4 04:32:03 10° N 04:36:54 71° WNW 04:41:33 10° SSW
